Total_Precipitation_Accumulation
1.23 1.10 1.03 0.92 0.82 0.69 0.57 0.58 0.65 0.59 0.55 0.48 0.40 0.35 0.34 0.29 0.23 0.20 0.20 0.22 0.24 0.36 0.48 0.54 0.51 0.49 0.53 0.55 0.56 0.57 0.53 0.48 0.44 0.44 0.42 0.39 0.38 0.38 0.40 0.40 0.39 0.40 0.43
1.34 1.26 1.08 0.94 0.87 0.78 0.64 0.56 0.60 0.66 0.64 0.61 0.54 0.46 0.43 0.38 0.30 0.26 0.24 0.26 0.28 0.33 0.42 0.46 0.51 0.58 0.67 0.73 0.74 0.70 0.64 0.59 0.56 0.54 0.53 0.49 0.46 0.43 0.43 0.43 0.42 0.43 0.46
1.41 1.37 1.20 0.98 0.90 0.91 0.83 0.73 0.71 0.74 0.70 0.60 0.53 0.52 0.49 0.41 0.34 0.31 0.29 0.29 0.29 0.31 0.40 0.47 0.49 0.55 0.71 0.80 0.85 0.84 0.76 0.68 0.65 0.63 0.59 0.57 0.53 0.51 0.53 0.53 0.50 0.47 0.47
1.55 1.52 1.38 1.14 1.10 1.16 1.08 0.94 0.84 0.77 0.72 0.66 0.57 0.55 0.51 0.46 0.39 0.37 0.34 0.32 0.30 0.32 0.39 0.49 0.49 0.51 0.62 0.74 0.85 0.94 0.91 0.83 0.77 0.70 0.64 0.60 0.57 0.57 0.60 0.61 0.61 0.57 0.57
1.60 1.54 1.45 1.37 1.35 1.33 1.24 1.09 0.97 0.89 0.77 0.74 0.70 0.67 0.65 0.60 0.51 0.45 0.40 0.38 0.35 0.36 0.45 0.53 0.51 0.49 0.52 0.56 0.68 0.83 0.92 0.91 0.81 0.72 0.68 0.64 0.60 0.60 0.62 0.64 0.62 0.60 0.61
1.65 1.60 1.48 1.48 1.53 1.48 1.39 1.30 1.13 1.02 0.94 0.89 0.86 0.78 0.77 0.77 0.66 0.51 0.44 0.43 0.41 0.42 0.50 0.55 0.51 0.47 0.50 0.46 0.49 0.62 0.78 0.89 0.88 0.80 0.74 0.68 0.66 0.66 0.68 0.70 0.70 0.66 0.64
1.90 1.80 1.60 1.57 1.60 1.51 1.41 1.45 1.46 1.35 1.21 1.11 1.05 0.90 0.83 0.80 0.73 0.55 0.44 0.43 0.45 0.48 0.53 0.53 0.49 0.46 0.45 0.41 0.41 0.46 0.57 0.74 0.83 0.85 0.81 0.76 0.75 0.76 0.79 0.83 0.85 0.83 0.81
1.88 1.89 1.86 1.77 1.77 1.74 1.65 1.56 1.57 1.59 1.48 1.39 1.29 1.20 1.01 0.88 0.73 0.60 0.50 0.46 0.48 0.53 0.55 0.53 0.49 0.46 0.42 0.39 0.36 0.38 0.46 0.62 0.77 0.87 0.89 0.87 0.86 0.90 0.95 0.99 1.01 0.99 0.98
1.93 1.86 1.91 1.94 1.92 1.89 1.78 1.70 1.64 1.60 1.61 1.54 1.47 1.50 1.21 0.92 0.73 0.65 0.56 0.51 0.50 0.52 0.56 0.57 0.54 0.51 0.47 0.43 0.39 0.38 0.41 0.48 0.65 0.86 1.01 1.04 1.03 1.05 1.11 1.17 1.21 1.23 1.18
1.96 1.93 1.91 1.92 1.95 1.91 1.83 1.83 1.83 1.67 1.67 1.67 1.62 1.49 1.27 1.00 0.90 0.77 0.66 0.61 0.56 0.53 0.54 0.54 0.53 0.52 0.52 0.50 0.47 0.47 0.48 0.49 0.62 0.86 1.09 1.20 1.22 1.27 1.37 1.46 1.53 1.51 1.42
1.89 1.84 1.84 1.87 1.86 1.88 1.85 1.86 1.88 1.85 1.76 1.71 1.66 1.60 1.52 1.31 1.10 1.02 0.86 0.73 0.70 0.63 0.59 0.58 0.58 0.57 0.54 0.54 0.52 0.56 0.61 0.61 0.71 0.87 1.08 1.25 1.36 1.46 1.56 1.66 1.73 1.75 1.66
1.75 1.71 1.69 1.69 1.76 1.79 1.79 1.82 1.89 1.94 1.90 1.77 1.65 1.55 1.50 1.41 1.24 1.18 1.05 0.85 0.80 0.70 0.66 0.63 0.62 0.63 0.66 0.66 0.68 0.79 0.78 0.79 0.86 0.95 1.10 1.27 1.38 1.48 1.60 1.73 1.82 1.85 1.84
1.63 1.58 1.58 1.59 1.65 1.68 1.74 1.86 1.92 1.93 1.95 1.90 1.81 1.69 1.58 1.45 1.35 1.34 1.30 1.10 0.95 0.79 0.74 0.70 0.66 0.66 0.71 0.76 0.82 0.97 0.93 0.95 0.97 1.04 1.20 1.38 1.43 1.43 1.46 1.56 1.72 1.80 1.82
1.48 1.49 1.57 1.61 1.64 1.68 1.69 1.73 1.77 1.77 1.84 1.85 1.81 1.72 1.62 1.49 1.47 1.47 1.44 1.47 1.36 1.10 0.95 0.86 0.79 0.79 0.82 0.89 1.00 1.11 0.99 1.07 1.02 1.02 1.14 1.27 1.28 1.23 1.22 1.31 1.51 1.70 1.76
1.36 1.38 1.45 1.52 1.53 1.56 1.58 1.61 1.60 1.58 1.64 1.70 1.71 1.68 1.59 1.45 1.41 1.40 1.41 1.48 1.58 1.42 1.09 0.86 0.82 0.82 0.86 0.90 1.02 0.99 0.92 1.09 1.09 1.02 1.03 1.05 1.04 1.02 1.00 1.04 1.15 1.30 1.41
1.15 1.17 1.24 1.32 1.35 1.34 1.36 1.42 1.45 1.43 1.48 1.47 1.48 1.54 1.52 1.43 1.36 1.34 1.36 1.41 1.48 1.52 1.29 0.87 0.76 0.78 0.85 0.89 0.99 0.89 0.85 1.03 1.01 0.98 0.95 0.92 0.92 0.89 0.87 0.88 0.93 1.03 1.11
1.03 1.08 1.09 1.15 1.18 1.19 1.20 1.23 1.23 1.27 1.34 1.34 1.33 1.35 1.35 1.36 1.39 1.36 1.35 1.39 1.43 1.48 1.43 1.05 0.85 0.84 0.92 0.95 0.96 0.88 0.81 0.81 0.83 0.96 0.91 0.85 0.83 0.81 0.81 0.82 0.82 0.84 0.87
0.91 0.91 0.95 0.99 0.99 0.99 1.00 1.05 1.08 1.11 1.15 1.20 1.20 1.23 1.23 1.24 1.27 1.29 1.34 1.37 1.39 1.39 1.39 1.23 0.98 0.89 0.88 0.86 0.86 0.84 0.78 0.73 0.70 0.85 0.86 0.82 0.79 0.75 0.73 0.74 0.78 0.80 0.80
0.93 0.84 0.82 0.86 0.87 0.86 0.87 0.88 0.90 0.93 0.98 1.03 1.08 1.11 1.12 1.17 1.22 1.22 1.24 1.24 1.23 1.23 1.25 1.21 1.04 0.88 0.82 0.78 0.80 0.77 0.72 0.68 0.63 0.69 0.74 0.77 0.77 0.75 0.75 0.74 0.78 0.79 0.76
0.84 0.81 0.76 0.73 0.75 0.79 0.82 0.84 0.84 0.84 0.87 0.93 0.99 1.05 1.07 1.09 1.10 1.12 1.16 1.16 1.12 1.12 1.12 1.13 1.06 0.96 0.90 0.85 0.87 0.86 0.82 0.74 0.68 0.62 0.68 0.71 0.77 0.77 0.72 0.68 0.67 0.71 0.72
0.74 0.74 0.72 0.70 0.68 0.70 0.75 0.79 0.81 0.83 0.84 0.88 0.90 0.94 1.02 1.13 1.16 1.12 1.09 1.08 1.08 1.12 1.15 1.19 1.14 1.00 0.87 0.83 0.82 0.77 0.79 0.79 0.77 0.72 0.70 0.65 0.62 0.60 0.58 0.60 0.63 0.67 0.73
0.67 0.71 0.73 0.74 0.75 0.78 0.95 0.93 0.85 0.85 0.89 0.88 0.86 0.84 0.86 0.95 0.98 1.01 1.00 0.98 1.02 1.12 1.22 1.25 1.12 0.93 0.76 0.70 0.69 0.74 0.81 0.87 0.80 0.62 0.62 0.63 0.61 0.62 0.57 0.54 0.64 0.67 0.70
0.77 0.81 0.86 0.89 0.89 0.95 1.06 0.97 0.93 0.84 0.85 0.87 0.85 0.80 0.75 0.74 0.78 0.72 0.79 0.84 0.87 0.96 1.00 0.92 0.85 0.74 0.67 0.66 0.76 0.86 0.83 0.81 0.69 0.56 0.63 0.69 0.64 0.63 0.57 0.58 0.67 0.63 0.64
1.01 1.05 1.08 1.10 1.10 1.09 1.08 0.96 0.94 0.81 0.78 0.75 0.71 0.65 0.61 0.56 0.56 0.61 0.64 0.71 0.69 0.69 0.70 0.65 0.63 0.60 0.59 0.62 0.74 0.88 0.88 0.87 0.73 0.60 0.60 0.66 0.56 0.55 0.54 0.56 0.64 0.63 0.63
1.14 1.11 1.08 1.06 1.03 0.99 0.97 0.86 0.78 0.66 0.65 0.62 0.57 0.54 0.54 0.50 0.58 0.66 0.64 0.65 0.56 0.50 0.56 0.63 0.67 0.67 0.69 0.70 0.71 0.83 0.94 1.03 0.92 0.65 0.53 0.57 0.51 0.48 0.51 0.52 0.54 0.59 0.59
0.92 0.87 0.84 0.81 0.78 0.73 0.73 0.68 0.65 0.56 0.53 0.48 0.46 0.47 0.54 0.53 0.60 0.67 0.61 0.58 0.51 0.44 0.45 0.52 0.57 0.61 0.59 0.62 0.71 0.71 0.86 1.11 1.00 0.75 0.45 0.53 0.57 0.63 0.80 0.55 0.46 0.48 0.51